Location: Saint-Palais-sur-Mer
(45.6429°N, 1.0859°W)
Time: 14:34:59
(UTC+01:00)

BlueWalker 3 - Pass Details

Date: 20 January 2026
Orbit: 451 x 461 km, 53.2° (Epoch: 13 February)

Event Time Altitude Azimuth Distance (km) Brightness Sun altitude
Rises 18:55:19 0° 187° (S) 2,442 5.8 -10.8°
Reaches altitude 10° 18:58:22 10° 158° (SSE) 1,575 4.4 -11.3°
Maximum altitude 19:00:03 13° 129° (SE) 1,404 3.9 -11.6°
Enters shadow 19:00:58 12° 113° (ESE) 1,458 3.8 -11.7°
